This is the latest recevied weather packets stored in our database for station/object K1LVA. If no packets are shown the sender has not sent any weather packets the latest 10 day(s).
| Time | Temp. | Humidity | Pressure | Rain* | Wind** | Luminosity | Snow |
|---|---|---|---|---|---|---|---|
| 1778102766 | 30.56° C | 49% | 1012.7 hPa | 0 mm | - | 354 W/m² | - |
| 1778102461 | 30.56° C | 47% | 1012.6 hPa | 0 mm | - | 406 W/m² | - |
| 1778102156 | 30.56° C | 47% | 1012.4 hPa | 0 mm | - | 466 W/m² | - |
| 1778101849 | 31.11° C | 47% | 1012.3 hPa | 0 mm | - | 456 W/m² | - |
| 1778101545 | 30.56° C | 46% | 1012.4 hPa | 0 mm | - | 458 W/m² | - |
| 1778101241 | 30.56° C | 47% | 1012.4 hPa | 0 mm | - | 469 W/m² | - |
| 1778100938 | 30.56° C | 47% | 1012.6 hPa | 0 mm | - | 491 W/m² | - |
| 1778100633 | 30.56° C | 47% | 1012.8 hPa | 0 mm | - | 498 W/m² | - |
| 1778100331 | 30.56° C | 49% | 1012.4 hPa | 0 mm | - | 486 W/m² | - |
| 1778100028 | 30.56° C | 47% | 1012.8 hPa | 0 mm | - | 522 W/m² | - |
| 1778099721 | 30.56° C | 48% | 1012.7 hPa | 0 mm | - | 549 W/m² | - |
| 1778099417 | 30.56° C | 47% | 1012.8 hPa | 0 mm | - | 551 W/m² | - |
| 1778099114 | 30.56° C | 48% | 1012.9 hPa | 0 mm | - | 558 W/m² | - |
| 1778098811 | 30° C | 47% | 1012.9 hPa | 0 mm | - | 571 W/m² | - |
| 1778098509 | 30.56° C | 48% | 1013.2 hPa | 0 mm | - | 586 W/m² | - |
| 1778098205 | 30.56° C | 49% | 1013.1 hPa | 0 mm | - | 612 W/m² | - |
| 1778097901 | 30.56° C | 48% | 1013.2 hPa | 0 mm | - | 625 W/m² | - |
| 1778097597 | 30° C | 47% | 1013 hPa | 0 mm | - | 536 W/m² | - |
| 1778097295 | 30.56° C | 48% | 1013.3 hPa | 0 mm | - | 648 W/m² | - |
| 1778096991 | 30.56° C | 49% | 1013.3 hPa | 0 mm | - | 645 W/m² | - |
| 1778096689 | 30.56° C | 50% | 1013.6 hPa | 0 mm | - | 647 W/m² | - |
| 1778096385 | 30° C | 50% | 1014 hPa | 0 mm | - | 666 W/m² | - |
| 1778096082 | 30° C | 52% | 1013.8 hPa | 0 mm | - | 723 W/m² | - |
| 1778095773 | 30° C | 51% | 1014.1 hPa | 0 mm | - | 707 W/m² | - |
| 1778095470 | 29.44° C | 52% | 1014.1 hPa | 0 mm | - | 685 W/m² | - |
* Rain latest hour (hover to see other rain measurements)
** Current wind speed in m/s (hover to see current wind gust speed)